Temp
-6 -7 -7 -8 -8 -9 -8 -9 -8 -8 -7 -7 -7 -7 -6 -5 -5 -6 -6 -6 -6 -6 -6 -7 -6 -7 -7 -7 -7 -7 -7 -7 -6 -7 -7 -6 -8 -7 -7 -7 -7 -7 -7 -7
-7 -8 -8 -7 -10 -9 -8 -9 -8 -6 -7 -7 -8 -7 -6 -5 -6 -5 -5 -6 -6 -6 -6 -6 -6 -7 -7 -7 -7 -7 -7 -6 -7 -7 -7 -7 -7 -7 -7 -7 -6 -7 -7 -7
-7 -7 -9 -8 -11 -10 -9 -9 -9 -7 -7 -6 -8 -7 -7 -5 -6 -6 -5 -5 -5 -6 -6 -6 -5 -6 -6 -7 -7 -6 -7 -6 -7 -7 -6 -7 -7 -7 -7 -6 -6 -7 -7 -7
-8 -7 -8 -8 -9 -9 -11 -9 -10 -10 -8 -8 -8 -7 -7 -6 -6 -6 -5 -6 -6 -6 -7 -6 -6 -6 -6 -6 -7 -7 -7 -6 -6 -7 -6 -7 -7 -7 -7 -7 -7 -6 -6 -6
-9 -8 -8 -8 -8 -9 -11 -10 -11 -10 -9 -10 -9 -8 -7 -7 -6 -6 -7 -6 -7 -6 -6 -7 -6 -6 -6 -6 -6 -6 -6 -7 -6 -6 -6 -6 -7 -7 -6 -6 -6 -6 -6 -7
-9 -10 -9 -8 -8 -9 -9 -10 -9 -10 -10 -9 -10 -9 -8 -8 -7 -7 -7 -6 -6 -5 -6 -6 -6 -6 -6 -6 -6 -6 -7 -6 -6 -6 -6 -6 -6 -7 -6 -6 -6 -6 -6 -6
-10 -9 -9 -10 -9 -8 -9 -9 -9 -9 -9 -8 -9 -8 -7 -8 -7 -6 -6 -6 -6 -5 -4 -6 -6 -6 -6 -6 -5 -6 -6 -6 -6 -6 -6 -6 -6 -6 -6 -7 -6 -6 -6 -6
-11 -11 -10 -9 -10 -9 -9 -9 -10 -10 -9 -10 -9 -8 -7 -7 -8 -7 -5 -5 -5 -5 -5 -6 -6 -6 -5 -5 -5 -5 -6 -6 -6 -6 -5 -5 -5 -6 -6 -6 -6 -7 -7 -7
-11 -11 -11 -10 -10 -10 -10 -10 -11 -10 -10 -9 -9 -9 -8 -7 -6 -6 -5 -5 -4 -5 -5 -5 -6 -5 -6 -5 -6 -5 -6 -6 -6 -6 -6 -6 -5 -6 -6 -6 -6 -7 -7 -7
-10 -10 -11 -11 -10 -10 -10 -9 -10 -11 -11 -10 -9 -9 -9 -8 -6 -7 -5 -7 -6 -4 -5 -5 -5 -5 -6 -6 -6 -5 -6 -5 -6 -6 -6 -6 -6 -6 -6 -6 -6 -6 -6 -7
-10 -9 -10 -11 -11 -10 -11 -10 -10 -10 -10 -10 -9 -9 -9 -10 -6 -7 -7 -7 -7 -5 -5 -5 -5 -5 -5 -6 -6 -6 -6 -5 -6 -6 -6 -6 -6 -6 -6 -6 -6 -6 -6 -7
-10 -9 -10 -9 -11 -11 -11 -11 -11 -11 -10 -10 -9 -8 -9 -9 -9 -7 -7 -7 -8 -7 -5 -5 -5 -5 -4 -5 -5 -6 -6 -5 -5 -6 -6 -6 -6 -6 -6 -6 -6 -6 -6 -7
-10 -10 -10 -11 -11 -11 -11 -10 -11 -11 -10 -10 -10 -10 -9 -9 -9 -7 -8 -7 -8 -8 -8 -5 -5 -5 -4 -5 -5 -6 -5 -6 -6 -5 -6 -6 -6 -6 -6 -6 -6 -6 -6 -6
-10 -10 -10 -10 -10 -11 -10 -11 -11 -11 -11 -10 -9 -9 -10 -9 -8 -8 -8 -8 -11 -9 -8 -7 -5 -4 -5 -4 -5 -5 -5 -6 -5 -6 -5 -5 -6 -6 -6 -6 -6 -6 -6 -6
-10 -10 -11 -11 -10 -10 -10 -10 -10 -11 -11 -11 -10 -9 -10 -10 -9 -10 -10 -10 -10 -10 -9 -7 -5 -4 -4 -5 -4 -4 -5 -5 -5 -5 -6 -5 -6 -6 -6 -6 -6 -6 -6 -6
-10 -10 -10 -11 -11 -11 -11 -10 -11 -11 -11 -11 -10 -10 -10 -10 -10 -10 -10 -9 -9 -10 -9 -9 -7 -6 -5 -5 -5 -5 -5 -5 -6 -5 -6 -6 -6 -6 -6 -6 -6 -6 -6 -6
-10 -10 -10 -10 -11 -11 -10 -11 -12 -13 -12 -12 -12 -10 -10 -9 -10 -10 -10 -9 -10 -10 -9 -9 -7 -7 -6 -5 -4 -5 -6 -6 -6 -6 -6 -6 -5 -6 -6 -6 -6 -6 -6 -6
-12 -12 -11 -10 -11 -11 -11 -12 -12 -12 -11 -12 -12 -10 -10 -10 -10 -9 -9 -10 -11 -9 -9 -9 -7 -7 -6 -6 -5 -6 -6 -6 -6 -6 -6 -6 -6 -6 -6 -6 -6 -6 -6 -6
-12 -11 -11 -11 -11 -11 -12 -12 -12 -11 -12 -12 -13 -13 -12 -11 -10 -10 -10 -11 -8 -9 -8 -8 -8 -7 -7 -7 -6 -6 -6 -5 -5 -6 -6 -6 -6 -6 -6 -6 -6 -6 -6 -6
-12 -12 -12 -12 -12 -12 -12 -11 -11 -12 -13 -12 -13 -13 -12 -12 -12 -10 -10 -9 -9 -10 -8 -8 -8 -8 -7 -7 -6 -6 -6 -6 -6 -7 -6 -6 -6 -6 -6 -6 -6 -6 -6 -6
-13 -13 -12 -12 -12 -12 -11 -12 -11 -12 -12 -12 -12 -12 -11 -11 -12 -12 -11 -10 -9 -9 -10 -9 -9 -8 -8 -7 -6 -6 -6 -7 -5 -6 -7 -6 -6 -6 -7 -7 -6 -6 -6 -6
-13 -13 -13 -14 -13 -12 -12 -12 -12 -12 -12 -12 -12 -12 -11 -11 -11 -11 -11 -10 -9 -10 -10 -10 -10 -10 -10 -9 -8 -7 -7 -7 -6 -5 -5 -7 -7 -7 -7 -8 -7 -7 -7 -7
-13 -13 -13 -14 -13 -12 -12 -13 -12 -12 -12 -12 -12 -12 -12 -12 -12 -11 -11 -11 -11 -10 -9 -10 -10 -11 -11 -11 -10 -8 -8 -8 -6 -6 -6 -6 -7 -7 -7 -7 -7 -7 -8 -8
-13 -13 -13 -13 -13 -12 -12 -12 -12 -12 -12 -12 -12 -13 -12 -12 -13 -12 -11 -11 -13 -12 -11 -10 -10 -10 -10 -11 -10 -11 -10 -10 -9 -9 -7 -7 -7 -7 -7 -7 -6 -7 -8 -8
-13 -13 -13 -13 -13 -13 -12 -12 -12 -13 -13 -13 -12 -13 -13 -13 -12 -13 -12 -12 -11 -10 -10 -10 -11 -11 -11 -11 -11 -11 -10 -9 -9 -8 -8 -8 -7 -7 -7 -7 -7 -8 -10 -10
-13 -13 -13 -14 -13 -12 -13 -12 -13 -13 -13 -13 -13 -13 -13 -13 -12 -13 -13 -12 -12 -12 -12 -11 -11 -11 -11 -11 -10 -10 -10 -9 -9 -9 -9 -9 -9 -10 -10 -10 -11 -11 -10 -10
Height
5869 5872 5874 5874 5876 5876 5876 5878 5879 5878 5880 5883 5883 5884 5885 5885 5886 5889 5890 5893 5895 5896 5895 5896 5899 5900 5903 5905 5907 5908 5910 5910 5913 5916 5914 5918 5923 5924 5924 5923 5927 5928 5933 5932
5869 5870 5874 5872 5873 5874 5877 5876 5875 5877 5878 5881 5881 5881 5882 5886 5886 5888 5890 5892 5894 5895 5897 5899 5899 5901 5903 5906 5908 5909 5910 5911 5913 5917 5917 5920 5921 5924 5925 5925 5926 5930 5930 5931
5868 5869 5872 5872 5873 5873 5873 5873 5873 5877 5873 5870 5878 5880 5881 5883 5884 5887 5889 5888 5892 5896 5897 5900 5900 5901 5904 5906 5908 5910 5912 5913 5914 5917 5920 5921 5923 5925 5927 5928 5929 5934 5935 5936
5866 5867 5869 5871 5872 5872 5873 5870 5874 5874 5873 5874 5878 5881 5881 5884 5883 5884 5888 5890 5894 5898 5898 5899 5899 5903 5903 5905 5908 5910 5913 5915 5916 5918 5920 5921 5924 5926 5930 5931 5932 5937 5940 5937
5864 5866 5869 5869 5871 5872 5874 5875 5874 5874 5874 5876 5877 5875 5880 5882 5884 5884 5887 5891 5892 5894 5895 5900 5899 5903 5904 5905 5908 5910 5912 5915 5917 5919 5921 5923 5924 5926 5928 5930 5930 5934 5940 5940
5866 5867 5867 5869 5869 5870 5871 5871 5873 5874 5875 5877 5875 5874 5876 5881 5883 5884 5885 5885 5889 5890 5891 5897 5899 5901 5904 5905 5906 5910 5912 5915 5918 5921 5923 5925 5927 5929 5932 5932 5933 5932 5937 5941
5863 5863 5865 5866 5867 5868 5870 5871 5872 5872 5872 5873 5871 5871 5874 5877 5881 5879 5883 5885 5885 5888 5889 5894 5897 5901 5901 5905 5906 5908 5911 5915 5918 5922 5924 5926 5928 5929 5933 5935 5936 5936 5937 5940
5861 5863 5861 5863 5865 5865 5866 5867 5869 5867 5868 5870 5867 5868 5871 5874 5876 5879 5876 5881 5884 5884 5888 5891 5893 5897 5900 5903 5905 5906 5910 5913 5917 5921 5925 5927 5929 5931 5933 5934 5937 5937 5937 5938
5859 5859 5861 5861 5861 5863 5863 5865 5866 5865 5863 5866 5865 5866 5866 5868 5869 5869 5872 5876 5880 5883 5887 5890 5893 5895 5898 5904 5905 5906 5909 5913 5916 5920 5924 5928 5929 5931 5932 5933 5935 5937 5939 5938
5858 5857 5859 5860 5861 5862 5863 5865 5864 5864 5861 5863 5861 5863 5863 5866 5865 5868 5863 5871 5875 5879 5882 5886 5891 5893 5896 5900 5904 5905 5909 5910 5914 5917 5921 5926 5928 5930 5931 5932 5935 5937 5938 5939
5855 5857 5857 5859 5860 5860 5861 5862 5861 5859 5858 5859 5859 5860 5862 5862 5858 5863 5865 5864 5870 5874 5880 5884 5889 5891 5893 5895 5902 5904 5907 5908 5911 5913 5917 5921 5926 5928 5929 5931 5933 5935 5936 5937
5852 5855 5854 5855 5859 5855 5857 5859 5858 5855 5856 5855 5857 5862 5860 5859 5849 5861 5861 5865 5865 5871 5875 5879 5883 5889 5892 5894 5895 5901 5903 5905 5906 5909 5913 5917 5921 5925 5928 5930 5930 5930 5933 5935
5850 5849 5851 5852 5854 5852 5853 5854 5854 5850 5850 5852 5854 5858 5856 5857 5855 5852 5857 5861 5861 5868 5871 5874 5879 5883 5887 5890 5893 5897 5901 5902 5905 5907 5909 5913 5916 5921 5925 5927 5928 5929 5929 5931
5845 5845 5846 5845 5846 5846 5847 5847 5849 5848 5846 5846 5850 5854 5852 5853 5853 5851 5856 5852 5855 5864 5863 5867 5871 5877 5882 5887 5888 5895 5896 5900 5903 5904 5906 5908 5911 5915 5920 5923 5925 5926 5928 5929
5839 5841 5841 5840 5841 5842 5842 5842 5844 5843 5843 5842 5846 5845 5845 5846 5848 5848 5846 5849 5848 5856 5858 5859 5863 5869 5873 5879 5884 5891 5893 5896 5898 5902 5905 5907 5908 5909 5914 5918 5921 5924 5926 5928
5834 5835 5834 5836 5837 5836 5835 5836 5841 5841 5840 5838 5838 5837 5838 5840 5839 5836 5838 5842 5842 5847 5852 5852 5856 5860 5861 5871 5877 5884 5886 5888 5891 5899 5903 5906 5906 5906 5909 5914 5917 5919 5921 5923
5828 5829 5828 5830 5831 5831 5835 5835 5832 5832 5831 5829 5828 5829 5828 5833 5832 5831 5826 5832 5833 5841 5841 5842 5847 5851 5858 5863 5866 5876 5879 5881 5885 5888 5895 5902 5903 5903 5905 5908 5911 5914 5916 5918
5821 5822 5822 5824 5824 5827 5827 5827 5824 5825 5829 5825 5822 5821 5820 5823 5824 5829 5837 5841 5841 5841 5840 5839 5839 5842 5850 5859 5865 5868 5868 5861 5877 5886 5890 5893 5896 5897 5898 5901 5905 5908 5911 5912
5816 5814 5815 5818 5818 5821 5819 5817 5820 5821 5823 5816 5813 5811 5811 5813 5819 5826 5830 5834 5837 5840 5837 5836 5834 5835 5844 5852 5857 5861 5863 5865 5874 5879 5883 5885 5886 5890 5893 5894 5899 5902 5904 5906
5810 5809 5811 5812 5812 5813 5812 5811 5813 5814 5814 5810 5810 5807 5803 5805 5807 5821 5822 5826 5829 5832 5834 5833 5829 5835 5838 5844 5852 5858 5859 5855 5858 5864 5870 5872 5876 5880 5885 5888 5892 5895 5896 5898
5805 5806 5805 5806 5806 5806 5804 5806 5808 5808 5811 5807 5803 5805 5806 5802 5801 5806 5811 5817 5819 5823 5830 5827 5827 5830 5833 5835 5843 5853 5850 5854 5825 5856 5848 5859 5869 5872 5876 5879 5884 5886 5886 5888
5801 5801 5801 5800 5800 5801 5800 5801 5802 5803 5802 5801 5796 5794 5797 5802 5803 5800 5802 5807 5810 5816 5823 5823 5825 5827 5829 5832 5836 5841 5845 5846 5844 5833 5817 5833 5856 5862 5867 5870 5873 5876 5878 5880
5796 5797 5796 5796 5794 5796 5797 5795 5795 5797 5797 5795 5788 5788 5790 5794 5794 5796 5799 5800 5803 5810 5814 5820 5821 5823 5827 5830 5829 5833 5833 5833 5833 5839 5836 5837 5848 5854 5859 5863 5864 5866 5869 5871
5791 5789 5791 5790 5789 5790 5790 5792 5791 5790 5788 5784 5779 5783 5783 5785 5787 5788 5790 5789 5794 5801 5807 5811 5816 5819 5821 5824 5826 5829 5830 5832 5831 5834 5835 5836 5839 5842 5849 5852 5853 5857 5860 5861
5781 5784 5784 5785 5784 5784 5786 5786 5784 5782 5780 5779 5775 5777 5776 5776 5777 5779 5780 5784 5789 5795 5799 5805 5809 5813 5816 5819 5822 5824 5824 5829 5832 5831 5832 5831 5829 5830 5836 5840 5842 5845 5851 5855
5773 5775 5778 5778 5779 5780 5781 5780 5778 5777 5777 5772 5770 5772 5771 5769 5772 5772 5774 5777 5780 5785 5789 5795 5801 5805 5809 5813 5815 5817 5820 5823 5822 5822 5821 5823 5826 5829 5831 5833 5836 5840 5844 5848
Wind_Speed
5 2 6 12 10 7 13 17 19 19 20 12 10 10 10 10 19 15 19 14 12 13 13 8 10 10 9 10 11 10 10 11 10 7 4 6 7 8 10 6 12 12 14 15
8 10 7 10 2 12 9 13 17 15 11 7 7 10 12 6 12 16 18 14 12 8 9 13 12 13 13 11 12 11 11 12 8 7 6 6 6 7 7 11 9 13 9 11
9 8 9 10 8 16 13 14 15 16 11 7 8 10 14 14 8 22 18 19 20 13 11 12 12 13 13 13 13 12 11 11 10 8 7 7 7 9 9 9 10 13 15 13
9 7 5 4 13 16 5 14 17 13 8 15 20 22 19 13 9 3 17 23 16 15 15 13 10 17 13 14 12 12 12 11 11 10 9 9 8 11 10 11 11 13 18 17
9 7 6 7 10 14 8 16 21 19 22 23 25 22 12 12 11 15 8 17 9 18 28 16 15 15 14 15 14 13 12 12 11 11 10 10 7 7 10 7 7 7 14 15
5 9 8 6 11 16 19 22 20 20 21 15 11 20 10 10 6 5 13 16 16 21 30 23 18 14 11 12 14 13 13 13 13 12 13 11 10 9 6 6 5 5 8 14
1 8 0 5 9 11 11 11 10 14 13 5 16 17 13 7 10 16 9 9 16 27 21 19 21 15 13 15 15 14 15 14 14 15 14 11 9 7 7 9 7 7 7 8
5 10 15 7 7 9 12 6 9 13 17 15 20 16 8 7 7 13 13 8 15 22 27 24 17 23 16 18 16 15 15 16 15 16 14 13 12 9 8 5 5 4 5 5
13 9 10 16 7 7 9 8 12 19 24 15 13 14 16 12 12 11 4 5 6 17 18 21 22 21 18 17 15 16 16 17 17 16 15 14 12 12 12 10 9 9 7 4
18 21 9 7 8 8 11 11 13 17 26 19 17 9 9 15 20 15 11 10 11 12 22 23 22 25 25 25 14 16 16 17 17 16 15 15 14 14 13 12 11 9 8 7
17 19 15 8 7 5 8 9 14 20 25 24 27 11 13 20 22 7 12 14 11 12 21 23 25 27 24 20 23 16 18 19 18 18 19 18 18 17 16 17 14 12 10 9
17 12 20 16 8 8 11 6 15 18 25 31 25 27 26 20 22 12 13 10 11 12 11 23 22 29 24 25 23 17 20 22 20 20 19 19 18 18 19 18 16 14 12 11
11 15 13 19 13 15 19 17 15 19 25 24 31 23 20 22 32 18 13 15 7 8 18 23 22 28 27 28 24 27 27 19 21 22 22 21 20 20 20 18 17 15 15 13
18 15 16 22 21 26 23 23 20 18 21 23 31 25 25 24 19 32 17 19 10 16 19 26 22 26 28 31 33 29 27 25 23 21 22 22 21 20 20 19 19 18 16 17
20 19 20 24 21 24 24 24 28 26 26 29 20 30 26 26 36 34 37 28 19 20 21 23 26 24 30 33 33 29 29 26 22 23 22 24 23 21 20 20 20 20 20 20
17 22 24 22 22 26 30 30 25 26 31 28 28 32 33 28 30 32 36 23 22 19 24 22 23 24 27 31 32 27 31 27 30 25 25 25 22 22 22 21 22 22 21 20
23 22 25 22 21 24 20 20 18 18 25 28 32 35 38 38 36 33 32 24 12 18 19 22 18 30 31 29 44 33 35 30 34 30 30 29 26 23 23 23 23 22 21 19
19 23 24 21 22 20 17 19 28 28 25 29 34 36 41 42 42 36 30 37 28 19 14 17 19 32 33 37 41 43 48 42 41 37 32 31 29 28 27 27 28 25 25 25
20 25 25 21 21 18 18 21 24 25 18 25 34 40 44 45 47 44 34 22 30 33 18 17 8 22 30 35 40 36 34 31 24 33 35 35 31 30 30 30 29 29 29 27
15 17 21 18 19 18 21 26 22 25 26 26 29 32 37 44 50 33 37 31 29 32 27 21 14 17 34 45 42 47 41 47 43 36 39 36 34 33 31 31 31 30 28 30
15 15 16 17 20 20 25 23 18 20 25 30 33 31 32 30 32 31 30 32 38 34 32 22 15 13 21 30 38 48 44 47 29 43 51 45 37 33 32 34 33 34 34 32
22 19 14 19 23 23 24 22 20 20 19 25 29 34 32 26 27 26 24 26 31 30 29 27 21 22 20 18 27 34 42 39 46 42 25 54 37 37 38 37 37 37 37 33
22 20 13 20 25 20 18 21 21 21 22 25 36 34 28 23 26 27 20 29 25 31 33 29 26 25 24 18 23 30 30 27 48 47 30 37 38 39 37 35 34 39 37 34
23 20 20 20 22 20 22 22 24 25 25 27 32 28 28 24 19 19 20 16 28 34 43 34 32 30 30 27 24 22 25 18 17 22 40 29 47 48 44 36 46 44 39 29
29 29 19 17 21 22 23 25 26 27 26 27 29 24 25 26 21 20 20 29 34 35 38 33 31 33 35 34 30 28 28 26 22 22 22 28 29 33 45 45 34 28 15 13
25 23 19 22 30 23 22 23 24 25 26 24 26 21 20 26 25 26 29 28 29 34 36 38 35 33 36 34 28 27 31 28 16 16 13 8 6 5 10 6 12 15 15 16
Wind_Direction
190 162 189 204 203 272 267 280 279 284 286 284 324 298 312 348 207 218 224 205 213 183 167 165 177 153 146 140 138 168 167 162 163 141 173 133 114 128 166 122 140 144 147 145
172 135 217 205 160 289 291 284 282 269 323 254 267 333 312 285 241 211 217 213 185 209 171 183 169 158 153 142 146 162 163 157 163 161 173 133 138 135 149 144 171 139 158 145
207 178 171 212 176 269 262 285 292 267 256 79 4 5 326 330 290 202 201 217 206 200 198 192 167 147 154 157 160 156 159 169 171 178 174 171 163 155 154 161 167 157 163 155
212 225 199 212 213 237 263 281 289 300 312 336 319 318 318 329 273 323 202 198 209 224 199 182 184 200 164 156 161 160 162 169 179 190 189 190 178 167 167 171 176 165 152 167
199 239 247 244 211 218 179 262 271 284 294 301 318 305 323 328 334 278 293 209 262 248 199 193 182 180 174 161 166 171 172 172 178 186 187 184 192 182 169 161 176 155 147 171
1 328 306 261 223 226 218 237 262 262 276 279 219 267 270 298 295 6 312 288 292 211 214 200 195 181 175 170 166 170 178 179 177 182 181 183 185 182 168 166 158 149 147 151
297 316 350 311 257 249 247 260 257 235 227 226 249 239 279 258 295 296 295 313 291 199 193 204 200 192 183 183 177 170 175 179 178 186 185 191 183 192 166 153 150 152 133 139
322 308 304 259 294 252 221 223 260 250 264 272 281 253 252 264 217 272 300 266 283 227 217 218 220 206 208 191 185 176 182 176 185 196 195 197 190 194 192 179 167 137 137 134
194 236 268 295 314 254 222 212 228 247 261 278 297 298 232 274 228 217 234 246 260 215 219 216 206 212 207 178 187 187 189 189 184 197 204 204 203 208 209 218 200 175 194 173
230 216 221 285 325 269 270 270 242 251 259 280 267 269 256 239 235 260 206 188 208 239 220 232 217 221 208 211 216 199 194 199 192 199 207 207 213 208 208 223 222 204 200 198
231 231 233 194 316 297 266 231 252 250 253 255 263 322 250 262 202 247 227 181 209 223 213 226 229 231 240 232 208 212 209 200 200 199 208 212 209 212 220 225 225 223 217 224
243 271 247 232 219 240 267 269 260 273 266 257 268 268 268 286 276 198 212 236 157 194 225 221 227 235 221 208 189 204 224 203 200 206 209 216 221 225 225 230 232 234 224 226
246 242 237 206 207 245 248 259 247 268 270 264 240 270 280 276 267 211 263 238 185 228 231 231 233 235 228 222 222 207 225 216 213 216 216 218 217 223 229 233 236 238 245 242
244 241 223 212 216 227 230 233 224 246 277 268 240 264 288 275 259 254 240 244 215 243 247 230 233 215 231 222 226 214 218 220 221 217 220 221 223 227 231 235 241 245 246 251
250 243 235 238 249 245 242 240 234 236 255 273 266 265 272 258 264 269 273 213 221 236 245 235 224 238 227 229 230 218 215 217 218 224 230 226 222 224 232 235 236 239 239 241
255 253 249 244 242 244 248 255 257 262 265 269 268 257 261 250 261 272 265 223 211 232 241 261 223 216 237 231 233 221 216 211 225 226 232 233 227 225 228 232 237 239 242 244
289 255 259 259 252 253 263 264 243 250 245 253 253 259 257 252 264 268 274 295 258 228 225 243 235 222 217 231 209 227 231 226 210 208 222 230 227 227 229 234 235 236 241 246
276 260 255 257 255 255 244 235 251 250 267 271 268 262 262 257 257 268 271 267 276 252 224 229 248 213 214 208 225 233 234 223 217 233 229 229 229 229 231 232 237 240 243 247
267 263 261 259 259 254 234 243 253 264 264 260 253 260 261 255 257 261 269 275 282 253 228 233 225 212 212 223 226 218 242 242 227 230 232 230 229 233 235 237 238 237 241 247
263 265 268 258 258 260 246 258 266 268 258 263 262 268 276 277 276 272 270 249 249 260 241 229 230 205 214 218 217 234 239 244 230 227 238 236 231 233 239 243 245 244 244 251
279 287 280 261 258 254 256 264 271 267 262 270 275 277 264 268 281 282 270 266 259 270 238 219 205 218 213 216 223 229 227 228 221 247 236 234 232 234 235 242 245 248 248 253
263 281 274 268 265 252 267 274 275 267 280 277 277 279 272 265 272 288 266 241 255 254 230 219 211 213 232 235 224 213 219 224 237 227 219 220 226 231 239 237 243 248 252 250
256 255 265 264 263 265 277 273 279 290 287 280 277 280 285 275 259 259 267 242 263 243 231 225 223 231 228 228 235 232 216 234 237 238 198 207 223 233 234 235 247 249 248 254
250 254 265 266 273 267 261 271 278 284 293 277 264 274 285 274 262 263 249 242 214 225 232 229 231 230 236 232 244 251 258 243 259 235 238 229 243 227 227 225 239 247 242 246
255 242 244 260 253 262 273 281 287 288 292 284 278 286 282 281 279 278 239 216 213 217 223 226 233 237 238 240 241 246 258 263 250 225 229 228 238 226 226 232 224 222 224 252
251 274 276 265 268 274 273 275 276 284 292 279 274 279 278 274 278 263 253 224 218 218 220 223 226 238 241 241 238 246 249 249 249 243 250 261 195 172 356 246 202 213 231 250